Wind_Speed
14 21 21 22 24 28 26 30 34 36 40 40 41 43 42 40 37 36 35 34 35 35 32 31 30 29 29 28 27 27 30 30 28 27 26 25 25 26 26 27 28 28 27
27 26 25 25 24 24 21 27 31 34 35 38 39 40 40 38 38 38 38 39 37 34 32 31 31 29 30 28 27 26 28 29 28 27 26 24 24 24 26 28 28 27 25
28 30 29 30 30 23 15 19 27 31 35 33 34 37 38 40 40 40 41 39 36 34 31 30 28 27 26 25 25 24 25 27 28 29 30 28 25 23 24 25 25 24 25
30 29 30 32 29 28 8 11 26 31 33 31 34 36 37 40 41 41 41 38 36 33 29 27 25 22 21 21 23 23 24 25 25 26 28 27 25 23 23 23 23 23 23
28 30 35 35 16 17 38 35 32 32 32 31 34 35 35 39 40 41 41 38 35 31 28 26 25 26 27 27 23 24 24 25 25 27 28 27 26 22 23 23 24 25 24
21 25 28 28 23 32 36 32 27 32 33 31 33 34 36 39 40 41 40 36 33 31 26 23 24 26 30 26 25 26 25 24 25 26 27 26 24 21 22 22 23 21 22
30 26 34 27 33 35 34 35 33 38 38 33 32 34 37 38 40 41 38 36 33 30 28 24 25 29 28 27 26 26 26 24 24 25 25 25 22 21 21 21 21 21 22
29 34 39 34 31 28 23 33 30 30 38 34 32 31 36 37 39 39 37 35 33 31 30 28 27 30 26 24 24 24 25 23 23 23 24 24 21 20 21 21 21 20 21
26 27 29 31 29 36 26 29 27 23 32 31 31 32 35 36 37 37 35 33 31 30 30 30 28 26 23 21 20 21 22 21 21 22 22 22 19 19 19 19 19 20 20
18 26 29 30 36 36 33 34 36 25 30 32 31 31 34 34 35 35 33 32 30 28 30 27 28 23 22 20 20 19 19 18 19 19 20 20 18 17 17 18 18 19 18
16 22 28 33 40 37 40 41 35 30 32 34 33 33 34 34 34 33 32 30 29 27 28 26 26 25 25 23 20 17 16 16 17 18 18 18 16 15 15 16 17 16 16
13 26 30 37 39 40 37 40 34 31 31 32 35 34 34 34 33 32 30 29 28 26 24 24 21 22 21 21 19 15 15 14 14 15 15 15 14 14 13 13 14 13 14
21 28 39 40 40 44 47 41 39 34 32 33 36 36 34 34 32 31 30 29 28 26 24 20 17 16 17 16 16 14 13 13 13 13 13 13 12 12 10 10 11 11 12
18 26 37 42 44 35 49 46 36 38 40 38 37 37 35 34 32 30 29 26 26 24 23 17 12 15 15 13 12 12 10 10 10 11 12 9 10 10 9 9 8 9 11
20 23 27 33 34 37 36 34 31 34 39 39 39 38 36 36 32 31 28 24 24 23 20 16 13 17 13 11 10 8 10 10 10 9 9 9 9 9 8 8 8 10 10
19 27 31 29 25 31 32 29 33 31 35 39 39 37 37 37 35 30 26 25 22 20 17 13 14 13 12 11 9 8 8 9 8 8 7 6 6 7 9 10 9 10 9
21 21 32 30 31 33 30 33 35 35 34 34 36 35 37 35 32 26 25 24 21 17 16 14 15 13 11 11 10 9 8 8 7 6 5 5 4 6 8 11 11 11 11
19 24 28 28 30 35 33 33 36 34 36 33 35 37 33 29 23 24 25 22 18 17 17 16 15 16 13 13 11 11 10 10 9 8 5 6 6 8 8 8 7 12 13
19 21 24 28 27 34 37 37 29 27 33 31 30 26 24 23 22 24 22 19 17 18 19 18 18 18 18 16 13 13 13 13 12 10 8 9 9 9 8 7 7 9 11
19 23 24 24 29 26 30 26 25 24 29 29 23 18 21 22 20 22 18 14 13 19 23 22 21 22 20 19 17 16 15 17 15 14 12 12 12 11 9 8 8 7 8
15 19 25 25 27 25 31 31 27 23 26 29 31 20 21 22 19 17 15 14 15 17 21 24 26 25 23 19 14 14 17 18 19 19 18 17 16 15 14 12 12 9 10
17 18 20 26 31 31 31 26 20 26 28 29 34 30 21 18 16 16 16 15 17 18 20 23 26 26 24 20 10 4 1 8 20 23 21 20 20 19 19 17 15 15 16
20 21 21 24 28 29 32 28 24 24 21 21 27 31 23 22 19 16 19 20 19 21 22 24 27 28 26 21 21 9 2 4 0 9 19 20 20 22 21 21 21 20 19
19 21 21 26 29 28 30 27 25 22 23 24 29 30 27 23 25 22 23 21 22 26 26 27 29 31 29 24 21 16 9 7 4 2 5 12 17 19 23 23 25 24 24
20 24 24 28 31 29 29 32 28 26 22 25 26 30 31 29 29 29 29 27 28 29 31 31 31 31 30 26 24 12 12 11 9 3 4 6 7 15 19 21 22 24 26
24 24 27 29 34 37 34 35 34 34 34 30 31 33 33 33 33 35 34 35 34 33 37 30 27 28 26 26 30 28 23 11 10 8 4 8 7 12 13 16 17 15 16
Wind_Direction
180 159 154 134 129 134 135 138 141 144 140 141 137 136 134 132 132 130 128 125 117 112 111 107 105 103 102 101 100 98 96 91 94 93 88 89 84 79 80 80 78 76 77
162 163 160 146 128 123 132 142 139 141 143 144 142 141 137 135 131 126 122 116 114 113 112 111 108 106 103 100 100 100 102 103 101 96 90 86 83 82 80 82 82 77 74
154 159 157 154 138 110 104 144 142 142 145 141 139 137 133 132 128 125 121 119 118 116 116 115 114 113 111 96 102 101 103 108 104 98 94 89 85 84 82 78 81 79 75
159 159 159 156 153 145 163 190 147 142 140 145 141 136 137 134 129 127 124 122 121 120 119 117 117 118 124 112 112 108 108 105 104 103 98 93 86 83 83 84 81 80 80
167 168 174 170 206 188 179 184 156 147 143 152 143 138 136 131 130 127 125 123 122 119 117 115 116 117 122 121 113 107 106 104 101 96 93 91 90 88 85 84 83 82 80
175 198 203 208 205 168 172 167 153 152 151 151 147 142 138 134 132 129 127 124 124 121 119 115 123 125 125 121 111 104 100 98 98 96 95 93 90 90 88 87 85 83 81
211 196 196 183 170 171 170 163 160 166 154 151 151 145 139 137 134 131 131 130 129 126 117 111 124 131 126 118 109 104 98 97 99 99 97 96 94 91 90 89 88 88 86
198 185 182 178 178 166 177 151 162 155 149 150 151 146 141 139 137 135 135 137 133 126 115 108 120 131 125 116 110 104 99 96 95 97 98 96 97 95 95 94 93 91 90
191 190 183 189 173 150 129 129 147 153 147 154 151 151 145 142 140 137 134 134 132 125 116 109 116 131 129 122 113 105 101 98 96 99 101 100 99 98 97 95 92 91 89
196 205 176 163 169 160 144 147 147 164 159 160 154 155 148 146 141 136 134 132 129 126 122 115 115 122 130 131 124 113 106 101 97 99 102 106 104 104 101 98 95 93 91
157 153 164 144 143 140 148 150 155 161 164 160 157 160 152 148 143 140 134 131 128 127 123 114 111 114 117 127 127 117 111 105 101 100 105 112 108 108 109 106 103 99 98
147 129 149 134 139 149 148 151 158 164 164 163 162 162 156 151 146 141 135 131 127 128 126 116 107 111 114 127 130 124 118 112 105 105 111 115 118 115 111 113 111 113 109
158 137 142 147 150 149 148 158 160 164 170 172 168 166 158 154 149 142 142 140 136 134 137 127 115 115 118 129 134 134 124 123 116 110 114 123 127 121 123 126 130 131 123
138 140 146 151 154 154 154 160 163 174 174 170 175 168 160 155 152 148 149 146 142 147 141 141 138 136 126 128 140 137 135 129 122 114 115 132 140 139 142 144 148 146 142
141 142 150 156 159 162 158 158 178 175 175 177 175 170 162 159 156 160 151 156 151 156 150 149 144 149 144 145 147 153 148 145 139 132 133 133 148 162 163 175 177 167 158
153 158 160 163 164 162 164 176 175 175 175 178 173 168 165 161 165 161 158 167 160 162 157 160 161 162 165 165 160 161 152 155 155 154 157 146 138 165 183 197 192 187 177
168 165 169 176 179 175 180 177 170 174 176 174 170 169 168 168 170 157 172 176 171 168 172 172 171 176 179 176 177 182 181 177 176 184 189 176 164 180 188 196 199 202 196
165 172 176 178 172 180 170 177 169 167 170 171 170 171 170 169 166 173 186 185 176 180 187 191 193 188 194 199 195 193 197 199 196 201 221 214 199 201 200 203 217 209 207
177 169 172 180 175 170 175 170 168 166 174 171 170 167 174 174 164 194 193 188 186 194 206 207 204 205 203 207 212 214 210 213 215 219 232 226 224 223 229 234 215 204 217
173 177 172 175 172 156 154 165 167 161 164 168 164 162 179 172 179 195 203 200 204 210 215 219 218 213 218 217 214 221 225 226 222 231 238 234 239 237 257 253 234 226 225
175 180 185 180 175 177 166 171 178 182 171 166 172 194 195 195 184 191 194 201 210 219 220 221 218 220 218 215 212 224 233 235 231 230 231 233 236 247 249 251 251 255 253
174 175 174 182 185 178 183 192 192 191 183 177 189 215 208 200 203 213 218 218 221 218 219 218 217 217 221 216 196 165 246 247 239 237 235 231 235 242 239 241 250 253 248
179 182 181 177 181 188 183 197 201 201 198 204 193 221 223 222 232 233 234 232 239 236 233 229 223 226 229 221 214 192 128 238 203 228 236 237 242 240 242 241 245 246 249
186 187 190 188 187 192 194 200 203 202 211 214 219 225 230 232 239 247 249 247 248 243 240 241 238 234 233 226 214 225 206 167 202 251 233 235 243 248 254 248 250 251 252
197 202 200 200 195 196 203 208 209 216 221 223 228 228 231 242 245 249 254 255 253 246 247 250 247 236 234 231 215 201 208 181 172 136 244 212 255 264 255 253 257 256 257
198 205 205 205 208 209 212 209 216 219 225 229 228 231 233 239 244 245 248 252 253 254 244 247 253 251 242 246 241 233 221 201 203 183 201 235 222 251 255 266 265 268 271
Height
767 771 772 774 778 776 784 781 787 795 792 794 793 793 794 794 799 801 803 807 811 814 820 822 826 830 831 832 834 835 835 836 838 838 839 840 840 841 841 840 841 841 842
764 768 771 775 777 780 789 791 790 794 796 797 798 798 793 796 801 803 806 810 815 818 822 825 829 833 834 836 837 838 838 839 841 841 841 844 844 844 845 844 845 846 847
766 766 769 770 768 776 788 798 794 795 798 804 803 802 799 801 802 805 807 811 817 821 826 829 831 834 836 837 839 842 842 842 844 843 844 846 848 849 847 848 849 850 852
765 766 769 767 767 766 789 805 798 799 802 809 805 803 806 803 803 807 808 814 819 824 828 830 832 835 837 839 841 844 845 845 846 846 846 848 850 853 852 853 854 854 856
766 764 769 767 766 766 772 796 797 800 803 813 806 807 810 805 808 809 812 817 822 827 832 834 834 836 838 841 844 845 846 847 850 849 849 852 853 856 856 857 856 858 859
761 764 766 768 767 771 785 792 795 799 805 811 808 809 810 808 811 812 815 820 826 829 835 837 837 839 840 844 846 846 848 850 851 853 853 855 857 859 859 860 860 861 862
758 761 765 770 776 779 787 785 792 801 804 807 809 811 810 813 812 812 819 822 828 833 835 838 839 841 844 846 846 848 849 853 854 856 856 857 861 861 862 863 863 865 866
758 761 762 769 779 785 789 789 802 801 800 805 810 815 813 816 815 816 820 826 831 835 838 839 840 844 848 849 851 852 852 856 857 858 859 860 863 864 865 866 867 867 867
761 764 765 769 776 784 789 791 801 805 800 809 812 818 816 819 818 819 823 829 834 838 839 842 843 845 849 851 853 854 856 858 858 859 861 864 866 867 869 869 870 869 872
761 762 765 768 769 777 782 788 795 802 806 813 814 819 819 821 821 823 826 831 835 840 842 845 846 847 849 850 854 856 858 860 860 862 862 865 868 870 871 870 872 872 874
758 757 761 766 770 775 785 789 799 802 805 808 814 819 820 822 824 826 829 834 837 842 845 847 850 849 850 853 855 856 860 861 863 863 864 867 869 871 872 871 873 874 875
760 760 756 764 772 778 786 792 799 800 805 810 816 820 821 823 826 829 832 836 839 843 848 849 852 852 853 855 856 858 860 862 864 864 866 867 871 872 873 874 874 877 876
758 762 764 767 775 777 785 793 798 805 809 812 815 819 822 824 828 830 835 838 839 842 848 850 853 854 855 857 858 861 861 863 865 866 866 869 871 872 874 876 877 878 877
763 765 767 773 773 782 779 788 795 803 807 811 815 818 820 823 830 832 837 838 840 845 847 851 853 855 857 859 861 862 863 864 866 867 868 871 872 873 874 876 878 878 878
766 766 770 774 778 784 787 789 794 801 806 808 813 815 817 823 828 833 836 840 841 846 846 850 853 854 856 860 862 864 864 865 866 869 870 871 871 873 875 877 878 878 878
768 770 772 776 781 784 786 789 792 801 805 809 811 815 818 821 827 833 837 841 844 847 847 851 853 857 858 859 861 863 863 865 866 867 869 870 870 872 874 877 878 879 879
770 767 775 779 782 785 787 790 794 802 806 810 813 818 821 822 829 830 838 843 845 847 849 852 853 856 858 860 861 863 863 864 866 868 869 868 869 872 873 874 876 877 878
771 774 776 779 781 786 790 795 797 803 807 812 816 819 822 825 827 834 841 843 844 847 850 853 853 854 858 860 861 862 863 864 866 867 868 869 869 870 872 873 874 874 875
771 773 778 780 784 787 792 797 802 803 808 813 817 820 824 826 828 838 840 840 841 846 850 851 851 854 856 859 860 862 862 864 865 866 867 868 869 869 870 871 871 872 874
771 774 777 780 783 787 791 797 802 805 810 813 815 819 826 828 832 836 837 837 840 845 848 849 850 853 854 856 858 860 862 864 866 865 866 867 868 868 868 869 870 871 872
773 774 777 781 785 791 796 801 806 807 810 812 817 826 828 830 830 833 835 836 840 842 844 846 848 851 853 854 856 858 859 861 863 864 864 864 865 865 866 867 868 868 871
771 775 778 782 786 792 797 801 805 807 809 815 819 823 826 828 828 831 833 836 838 840 843 845 847 849 850 851 852 854 858 859 858 860 860 859 860 862 863 864 865 866 867
771 775 779 781 786 792 796 801 803 806 809 812 816 822 822 824 827 828 833 834 836 838 839 842 844 846 846 848 848 850 856 857 854 853 854 857 858 859 860 860 861 861 862
768 773 778 781 785 789 793 798 801 804 806 809 812 815 818 821 824 826 830 831 833 835 836 838 839 840 841 843 846 847 847 848 852 852 851 851 853 855 855 856 857 858 859
765 770 774 779 783 787 791 795 798 801 804 808 811 814 814 817 819 822 825 827 829 830 832 833 834 835 836 839 840 842 845 846 847 849 852 847 849 850 850 851 854 855 854
762 768 772 773 776 780 783 788 791 795 800 803 805 807 809 811 814 816 818 820 823 824 823 825 829 830 832 833 836 837 838 839 840 842 846 845 845 846 847 849 850 850 850